ARIANE 5 R/B

Last updated on Mon Sep 21 2026 00:02:09 GMT+0000 (Coordinated Universal Time)

1 28499U 04049H 26263.44194742 .00000399 00000+0 50304-4 0 9999 2 28499 98.2791 79.4337 0084968 80.0517 281.0274 14.85564054174704
UTC large
Height (km)
Speed (km/s)
/
Latitude / Longitude
Inclination (degrees)
Orbital Period (minutes)
Azimuth
Elevation
Range (km)
Doppler Factor

Next 0 passes for location: London (51.5072 / 0.1276)

No passes found over London.
ARIANE 5 R/B